Change the Weather History Date:

Sunday, March 17, 2013

  Actual Average Record
Temperature  
Mean Temperature 73 °F -  
Max Temperature 87 °F 68 °F 90 °F (2011)
Min Temperature 59 °F 43 °F 27 °F (2005)
Cooling Degree Days 8    
Growing Degree Days 23 (Base 50)    
Moisture  
Dew Point 48 °F    
Average Humidity 55    
Maximum Humidity 88    
Minimum Humidity 5    
Precipitation  
Precipitation 0.00 in - - ()
Sea Level Pressure  
Sea Level Pressure 29.67 in    
Wind  
Wind Speed 5 mph (West)    
Max Wind Speed 14 mph    
Max Gust Speed 21 mph    
Visibility 8 miles    
Events      
Averages and records for this station are not official NWS values.
T = Trace of Precipitation, MM = Missing Value Source: NWS Daily Summary

Daily Weather History Graph

Daily Weather History Graph

Search for Another Location

Airport or City:

Trip Planner

Search our weather history database for the weather conditions in past years. The results will help you decide how hot, cold, wet, or windy it might be!

Date:

Astronomy

Mar. 17, 2013 Rise Set
Actual Time 7:46 AM CDT 7:48 PM CDT
Civil Twilight 7:22 AM CDT 8:12 PM CDT
Nautical Twilight 6:54 AM CDT 8:40 PM CDT
Astronomical Twilight 6:26 AM CDT 9:08 PM CDT
Moon 11:22 AM CDT (3/17) 12:36 AM CDT (3/17)
Length of Visible Light 12h 50m
Length of Day
12h 02m
Waxing Crescent, 31% of the Moon is Illuminated
Mar 17
Waxing Crescent
Mar 19
First Quarter
Mar 27
Full
Apr 2
Last Quarter
Apr 10
New

Hourly Weather History & Observations

Time (CDT) Temp. Dew Point Humidity Pressure Visibility Wind Dir Wind Speed Gust Speed Precip Events Conditions
12:51 AM 69.1 °F 54.0 °F 58% 29.68 in 9.0 mi South 8.1 mph - N/A   Clear
1:51 AM 66.9 °F 57.0 °F 70% 29.67 in 8.0 mi SSE 6.9 mph - N/A   Clear
2:51 AM 64.9 °F 57.0 °F 75% 29.66 in 8.0 mi South 6.9 mph - N/A   Clear
3:51 AM 63.0 °F 57.0 °F 81% 29.64 in 8.0 mi SSE 4.6 mph - N/A   Clear
4:51 AM 61.0 °F 55.9 °F 83% 29.64 in 7.0 mi WSW 3.5 mph - N/A   Clear
5:51 AM 60.1 °F 55.9 °F 86% 29.64 in 7.0 mi Calm Calm - N/A   Scattered Clouds
6:00 AM 60.8 °F 55.4 °F 82% 29.74 in 7.0 mi Calm Calm - N/A   Mostly Cloudy
6:48 AM 59.0 °F 55.4 °F 88% 29.74 in 7.0 mi Calm Calm - N/A   Scattered Clouds
6:51 AM 59.0 °F 55.0 °F 87% 29.64 in 7.0 mi Calm Calm - N/A   Scattered Clouds
7:00 AM 59.0 °F 55.4 °F 88% 29.74 in 6.0 mi NW 3.5 mph - N/A   Mostly Cloudy
7:51 AM 60.1 °F 55.9 °F 86% 29.66 in 6.0 mi WSW 4.6 mph - N/A   Overcast
8:51 AM 63.0 °F 57.0 °F 81% 29.71 in 6.0 mi NNW 3.5 mph - N/A   Haze
9:33 AM 62.6 °F 55.4 °F 77% 29.82 in 6.0 mi WNW 5.8 mph - N/A   Haze
9:51 AM 63.0 °F 55.9 °F 78% 29.74 in 6.0 mi West 5.8 mph - N/A   Haze
10:51 AM 66.0 °F 55.9 °F 70% 29.74 in 6.0 mi WSW 4.6 mph - N/A   Haze
11:18 AM 69.8 °F 55.4 °F 60% 29.82 in 7.0 mi WNW 6.9 mph - N/A   Scattered Clouds
11:51 AM 71.1 °F 55.0 °F 57% 29.71 in 7.0 mi Variable 5.8 mph - N/A   Clear
12:51 PM 73.9 °F 54.0 °F 50% 29.70 in 8.0 mi Variable 6.9 mph - N/A   Clear
1:51 PM 79.0 °F 51.1 °F 38% 29.67 in 8.0 mi Variable 5.8 mph - N/A   Clear
2:51 PM 82.0 °F 48.0 °F 30% 29.63 in 8.0 mi West 6.9 mph - N/A   Clear
3:51 PM 84.9 °F 43.0 °F 23% 29.60 in 9.0 mi West 8.1 mph - N/A   Clear
4:51 PM 87.1 °F 32.0 °F 14% 29.58 in 9.0 mi WSW 13.8 mph 20.7 mph N/A   Clear
5:51 PM 87.1 °F 24.1 °F 10% 29.57 in 10.0 mi WNW 9.2 mph 20.7 mph N/A   Clear
6:51 PM 84.9 °F 26.1 °F 12% 29.57 in 10.0 mi WNW 6.9 mph - N/A   Clear
7:51 PM 81.0 °F 28.0 °F 14% 29.59 in 10.0 mi NNW 6.9 mph - N/A   Clear
8:51 PM 71.1 °F 30.9 °F 23% 29.62 in 10.0 mi Calm Calm - N/A   Clear
9:51 PM 68.0 °F 37.0 °F 32% 29.64 in 10.0 mi East 6.9 mph - N/A   Clear
10:51 PM 64.9 °F 37.0 °F 36% 29.64 in 9.0 mi Calm Calm - N/A   Clear
11:51 PM 59.0 °F 37.0 °F 44% 29.66 in 10.0 mi WNW 4.6 mph - N/A   Clear